DW9396 Weather Reports


Display with metric or nautical units.
time (UTC)temp
F
wind
direction
speed
MPH
gust
MPH
rain 1hr
in
rain 24hr
in
rain mn
in
humidity
%
barometer
mb
20260509080100 52 136 0.0 3.0 0.00 0.00 0.00 89 1012.8
20260509074553 52 135 0.0 0.0 0.00 0.00 0.00 90 1012.7
20260509073051 53 136 0.0 2.0 0.00 0.00 0.00 89 1012.6
20260509070052 53 141 0.0 1.0 0.00 0.00 0.00 88 1012.6
20260509064557 54 143 0.0 1.0 0.00 0.00 0.00 88 1012.5
20260509063048 55 138 1.0 2.0 0.00 0.00 0.00 87 1012.5
20260509060046 56 136 0.0 1.0 0.00 0.00 0.00 86 1012.7
20260509054605 56 133 0.0 1.0 0.00 0.00 0.00 85 1012.8
20260509053051 57 132 0.0 1.0 0.00 0.00 0.00 84 1012.7
20260509050046 58 133 0.0 1.0 0.00 0.00 0.00 83 1012.8
20260509044545 58 134 0.0 2.0 0.00 0.00 0.00 82 1012.7
20260509043045 59 146 0.0 1.0 0.00 0.00 0.00 81 1012.6
20260509040045 61 149 0.0 1.0 0.00 0.00 0.00 76 1012.6
20260509034543 63 152 0.0 0.0 0.00 0.00 0.00 74 1012.5
20260509033043 64 153 0.0 0.0 0.00 0.00 0.00 70 1012.5
20260509030043 66 152 0.0 0.0 0.00 0.00 0.00 65 1012.2
20260509024541 68 150 0.0 0.0 0.00 0.00 0.00 63 1012.2
20260509023041 69 150 0.0 0.0 0.00 0.00 0.00 62 1012.2
20260509020044 71 24 0.0 0.0 0.00 0.00 0.00 57 1012.1
20260509014543 72 25 0.0 1.0 0.00 0.00 0.00 54 1012.1
20260509013040 73 5 0.0 2.0 0.00 0.00 0.00 54 1012.1
20260509010045 76 348 0.0 1.0 0.00 0.00 0.00 45 1012.2
20260509004538 78 100 0.0 3.0 0.00 0.00 0.00 44 1012.2
20260509003044 79 1 0.0 3.0 0.00 0.00 0.00 43 1012.3
20260509000034 81 327 1.0 2.0 0.00 0.00 0.00 39 1012.5
20260508234533 80 311 0.0 2.0 0.00 0.00 0.00 40 1012.6
20260508233032 80 336 1.0 3.0 0.00 0.00 0.00 39 1012.7
20260508230029 81 8 0.0 2.0 0.00 0.00 0.00 37 1013.0
20260508224528 81 325 1.0 3.0 0.00 0.00 0.00 37 1013.2
20260508223033 80 353 0.0 3.0 0.00 0.00 0.00 36 1013.3
20260508220101 79 18 3.0 4.0 0.00 0.00 0.00 34 1013.6
20260508214521 79 330 0.0 3.0 0.00 0.00 0.00 34 1013.6
20260508213021 79 20 2.0 5.0 0.00 0.00 0.00 40 1013.7
20260508210022 80 288 1.0 3.0 0.00 0.00 0.00 46 1013.8
20260508204523 82 5 1.0 4.0 0.00 0.00 0.00 46 1013.9
20260508203019 82 18 1.0 3.0 0.00 0.00 0.00 41 1013.9
20260508200017 81 295 1.0 3.0 0.00 0.00 0.00 43 1014.1
20260508194515 82 18 1.0 3.0 0.00 0.00 0.00 39 1014.2
20260508193012 81 13 0.0 4.0 0.00 0.00 0.00 39 1014.4
20260508190013 81 349 0.0 3.0 0.00 0.00 0.00 35 1014.5
20260508184512 80 252 0.0 2.0 0.00 0.00 0.00 28 1014.6
20260508183008 79 314 0.0 2.0 0.00 0.00 0.00 39 1014.7
20260508180004 77 330 0.0 3.0 0.00 0.00 0.00 43 1014.8
20260508174501 76 304 0.0 2.0 0.00 0.00 0.00 44 1014.9
20260508173101 75 307 1.0 3.0 0.00 0.00 0.00 44 1014.9
20260508173000 75 342 2.0 3.0 0.00 0.00 0.00 44 1014.9
20260508171701 75 298 0.0 1.0 0.00 0.00 0.00 44 1015.0
20260508170058 75 248 0.0 1.0 0.00 0.00 0.00 45 1015.0
20260508164550 74 116 0.0 1.0 0.00 0.00 0.00 48 1015.0
20260508163046 71 34 0.0 1.0 0.00 0.00 0.00 51 1015.0
20260508161642 69 89 0.0 0.0 0.00 0.00 0.00 58 1015.1
20260508160040 68 148 0.0 0.0 0.00 0.00 0.00 58 1015.1
20260508154536 65 149 0.0 1.0 0.00 0.00 0.00 59 1015.1
20260508153032 61 150 0.0 2.0 0.00 0.00 0.00 62 1015.1
20260508151628 58 139 0.0 2.0 0.00 0.00 0.00 66 1015.2
20260508150029 55 148 0.0 1.0 0.00 0.00 0.00 69 1015.2
20260508144523 51 141 0.0 3.0 0.00 0.00 0.00 75 1015.2
20260508143025 50 142 1.0 3.0 0.00 0.00 0.00 76 1015.1
20260508141620 48 142 0.0 3.0 0.00 0.00 0.00 78 1015.0
20260508140025 48 136 1.0 3.0 0.00 0.00 0.00 78 1014.9
20260508134526 48 142 0.0 3.0 0.00 0.00 0.00 78 1014.6
20260508133014 47 148 1.0 4.0 0.00 0.00 0.00 78 1014.5
20260508131615 48 146 1.0 3.0 0.00 0.00 0.00 78 1014.5
20260508130018 47 148 2.0 4.0 0.00 0.00 0.00 79 1014.5
20260508124518 47 142 0.0 4.0 0.00 0.00 0.00 79 1014.5
20260508123017 47 133 1.0 4.0 0.00 0.00 0.00 79 1014.6
20260508121618 47 152 2.0 4.0 0.00 0.00 0.00 78 1014.6
20260508120013 47 133 2.0 4.0 0.00 0.00 0.00 79 1014.5
20260508114512 47 138 1.0 4.0 0.00 0.00 0.00 79 1014.5
20260508113015 47 155 1.0 4.0 0.00 0.00 0.00 79 1014.4
20260508111610 47 148 1.0 4.0 0.00 0.00 0.00 79 1014.5
20260508110016 47 153 2.0 4.0 0.00 0.00 0.00 79 1014.6
20260508104512 46 145 1.0 4.0 0.00 0.00 0.00 79 1014.6
20260508103007 46 139 1.0 4.0 0.00 0.00 0.00 81 1014.6
20260508101608 46 134 0.0 4.0 0.00 0.00 0.00 79 1014.5
20260508100005 46 126 2.0 4.0 0.00 0.00 0.00 80 1014.6
20260508094503 47 114 2.0 4.0 0.00 0.00 0.00 80 1014.5
20260508093002 47 127 1.0 4.0 0.00 0.00 0.00 80 1014.4
20260508091604 48 141 0.0 2.0 0.00 0.00 0.00 78 1014.5
20260508090100 48 132 2.0 4.0 0.00 0.00 0.00 78 1014.4
20260508084558 48 128 0.0 2.0 0.00 0.00 0.00 79 1014.3
20260508083056 49 132 0.0 4.0 0.00 0.00 0.00 79 1014.3
20260508081616 49 146 1.0 4.0 0.00 0.00 0.00 81 1014.2